Home > Weather > Northampton > Past weeks

Flag for United Kingdom Past Weather in Northampton, England, United Kingdom — Yesterday and Last 2 Weeks

Now
79 °F

Scattered clouds.


Feels Like: 80 °F
Forecast: 58 / 74 °F
Wind: 9 mph from Southwest

Location: Cranfield

Current Time: Jul 23, 2016 at 6:11:33 PM

Latest Report: Jul 23, 2016 at 4:50 PM


Visibility: N/A

Pressure: 30.07 "Hg

Humidity: 54%

Dew Point: 61 °F

Location of NorthamptonLocation

Past Weather in Northampton — Graph

°F

Northampton Temperature Yesterday

Maximum temperature yesterday: 73 °F (at 12:50 PM)
Minimum temperature yesterday: 63 °F (at 7:20 AM)
Average temperature yesterday: 69 °F

High & Low Weather Summary for the Past Weeks

 TemperatureHumidityPressure
High88 °F (Jul 19, 1:50 PM)94% (Jul 10, 8:20 AM)30.30 "Hg (Jul 10, 8:20 AM)
Low54 °F (Jul 13, 7:20 AM)37% (Jul 18, 5:50 PM)29.62 "Hg (Jul 11, 7:20 AM)
Average70 °F71%30.02 "Hg
* Reported Jul 8 4:20 PM — Jul 23 4:50 PM, Northampton, Weather by CustomWeather, © 2016

Note: Actual official high and low records may vary slightly from our data, if they occured in-between our weather recording intervals... More about our weather records

Advertising

Northampton Weather History for the Previous 24 Hours

Scroll right to see more
 ConditionsComfort  
Time TempWeatherWind HumidityBarometerVisibility
4:50 PM
Sat, Jul 23
79 °FScattered clouds.9 mph54%30.07 "HgN/A
4:20 PM77 °FScattered clouds.8 mph57%30.09 "HgN/A
3:50 PM81 °FScattered clouds.8 mph51%30.09 "HgN/A
3:20 PM79 °FScattered clouds.8 mph51%30.09 "HgN/A
2:50 PM79 °FScattered clouds.7 mph48%30.09 "HgN/A
2:20 PM79 °FScattered clouds.3 mph51%30.09 "HgN/A
1:50 PM79 °FScattered clouds.3 mph51%30.12 "HgN/A
1:20 PM79 °FScattered clouds.7 mph51%30.12 "HgN/A
12:50 PM77 °FScattered clouds.5 mph57%30.12 "HgN/A
12:20 PM77 °FScattered clouds.7 mph57%30.12 "HgN/A
11:50 AM77 °FScattered clouds.6 mph57%30.12 "HgN/A
11:20 AM75 °FPassing clouds.2 mph61%30.12 "HgN/A
10:50 AM75 °FPassing clouds.No wind65%30.12 "HgN/A
10:20 AM73 °FPassing clouds.2 mph74%30.12 "HgN/A
9:50 AM73 °FPassing clouds.2 mph74%30.12 "HgN/A
9:20 AM72 °FSunny.No wind78%30.12 "Hg10 mi
8:50 AM70 °FSunny.No wind78%30.12 "Hg10 mi
8:20 AM70 °FSunny.No wind78%30.12 "Hg10 mi
Weather by CustomWeather, © 2016

See weather overviewHow to use our weather pages